User: anonymous   Login
Location: Fort Wayne
(41.1310°N, 85.1290°W)
Time: 05:37:07
(UTC-05:00)
Language:

Cosmos 2082 - Orbit

View from above orbital plane
View from above orbital plane
View from above satellite
View from above satellite

Ground track
Ground track

The orbit data is extracted from the following two-line orbital elements,

1 20624U 90046A   18051.46207588 +.00000254 +00000-0 +15753-3 0  9993
2 20624 071.0407 054.9139 0014810 359.9333 000.1784 14.14245680432290
Epoch (UTC): 20 February 2018 11:05:23
Eccentricity: 0.0014810
inclination: 71.0407°
perigee height: 834 km
apogee height: 855 km
right ascension of ascending node: 54.9139°
argument of perigee: 359.9333°
revolutions per day: 14.14245680
mean anomaly at epoch: 0.1784°
orbit number at epoch: 43229

The dashed part of the orbit path shows where the satellite is in the earth's shadow,  

DLR